Location: Unspecified
(0.0000°N, 0.0000°E)
Time: 06:23:04
(UTC+00:00)

Envisat - Pass Details

Date: 26 July 2021
Orbit: 764 x 766 km, 98.2° (Epoch: 31 July)

Event Time Altitude Azimuth Distance (km) Brightness Sun altitude
Rises 05:18:18 0° 359° (N) 3,212 6.5 -11.4°
Reaches altitude 10° 05:20:41 10° 353° (N) 2,290 5.6 -10.8°
Maximum altitude 05:25:27 44° 282° (WNW) 1,055 3.4 -9.7°
Drops below altitude 10° 05:30:16 10° 211° (SSW) 2,300 5.0 -8.6°
Sets 05:32:40 0° 204° (SSW) 3,229 5.8 -8.0°
